Wind_Speed
7 8 8 8 8 8 8 8 9 9 9 9 9 9 9 8 8 8 8 8 8 8 7 7 7 7 7 7 7 7 7 7 7 7 6 6 6 6 6 6 5 5 6
7 7 7 7 8 8 8 9 9 9 8 8 9 8 8 8 8 8 7 7 7 8 7 7 7 7 7 7 7 7 7 7 7 6 6 6 6 6 6 6 5 6 5
6 6 6 7 7 7 8 9 8 8 8 8 8 7 7 7 8 7 7 6 7 7 7 7 7 6 6 7 7 7 6 6 6 6 5 5 5 5 5 5 6 5 5
5 5 5 6 6 6 6 8 7 7 7 7 7 6 6 7 7 7 6 6 6 6 6 6 6 5 6 6 6 5 5 5 4 4 4 4 5 5 5 5 5 5 4
4 5 5 5 5 5 6 7 7 6 6 5 5 5 6 6 6 6 5 5 6 6 6 5 5 5 5 5 4 4 4 4 4 3 4 4 4 4 5 4 5 5 5
4 4 4 5 5 5 5 6 7 6 5 5 4 4 5 5 5 6 5 5 5 5 4 4 4 4 4 4 3 3 3 3 4 3 3 3 3 3 3 3 4 5 5
3 3 4 5 4 4 4 6 6 6 5 4 4 4 5 5 5 5 5 5 5 4 4 3 3 3 3 2 3 3 3 3 4 3 3 3 3 3 3 3 3 4 4
2 3 3 4 4 4 5 6 6 6 5 4 4 4 4 5 5 5 5 4 4 3 3 3 3 2 2 2 2 2 3 3 3 2 3 3 2 2 2 2 2 3 3
2 2 3 3 4 4 4 5 5 5 4 3 3 3 4 4 4 3 3 3 3 3 2 2 2 2 2 2 2 2 2 2 2 2 2 1 1 1 2 1 2 2 2
3 2 2 3 4 4 4 5 5 4 4 3 3 3 3 3 3 2 2 2 2 2 2 2 2 2 2 2 1 1 2 2 1 0 0 1 1 1 1 1 1 2 2
2 2 2 3 3 4 4 4 4 4 3 3 3 3 3 3 2 1 1 2 2 1 1 2 2 2 2 2 2 1 1 1 1 0 1 1 1 1 1 1 2 2 3
1 2 2 2 3 3 4 4 3 3 4 3 3 3 3 3 2 2 1 2 2 1 1 2 2 2 2 2 1 1 1 1 1 1 1 1 1 1 1 2 2 3 3
3 2 2 2 2 3 3 3 3 3 3 3 3 4 3 3 2 1 1 1 2 2 1 2 3 2 2 2 1 0 1 1 1 1 1 1 1 1 2 2 3 3 4
4 4 4 4 2 2 2 1 1 2 4 4 4 4 3 2 1 1 1 1 1 1 1 2 2 2 2 2 0 1 2 2 2 2 2 1 2 2 3 3 4 4 5
5 5 4 5 3 2 2 1 1 1 2 3 3 3 2 1 0 1 1 1 1 1 2 2 2 1 1 1 0 1 2 3 3 2 2 2 3 4 4 4 5 5 5
6 6 6 5 4 4 3 2 1 2 2 2 2 2 1 0 1 2 2 2 1 1 2 1 1 1 1 1 1 2 2 3 3 3 2 2 3 4 5 5 5 6 5
6 6 5 5 5 4 3 2 1 1 1 1 1 1 1 0 1 2 3 2 2 2 2 2 1 1 1 2 2 2 3 4 4 3 3 3 4 4 5 5 5 6 5
6 5 5 5 4 4 4 2 1 1 0 0 1 1 1 1 1 2 2 2 2 2 3 2 3 3 3 3 3 3 4 4 4 4 4 4 4 5 5 5 5 6 6
6 6 5 5 5 4 4 2 1 1 1 1 1 1 1 1 1 2 3 2 2 3 3 4 5 4 4 4 4 4 5 4 4 4 4 4 5 5 5 6 6 6 6
7 6 5 5 4 4 4 3 2 2 2 1 1 1 2 2 1 2 3 3 3 4 4 5 6 6 6 6 5 6 6 5 6 6 6 6 5 5 5 6 6 7 7
6 6 5 5 5 5 5 4 4 3 3 2 2 2 2 2 2 2 2 3 4 5 6 6 7 7 7 7 7 8 7 6 7 7 7 7 7 7 7 7 7 7 7
7 6 6 6 5 5 5 5 4 4 4 3 3 3 3 3 3 3 3 4 5 6 7 7 7 7 7 8 8 8 7 7 7 8 8 8 7 8 8 8 8 8 8
7 7 7 6 6 6 5 5 5 5 5 5 4 4 4 4 4 4 5 6 7 7 8 8 8 9 8 8 8 8 7 7 7 8 8 8 7 8 8 8 9 9 9
7 7 7 7 7 7 6 6 6 6 6 6 6 6 6 6 6 6 7 7 8 8 9 8 9 9 8 8 8 8 8 9 8 9 9 9 8 8 8 9 9 10 10
9 8 8 8 8 8 8 8 7 7 7 7 7 7 8 8 7 8 8 9 9 9 10 9 9 9 9 9 9 9 10 10 10 10 10 9 9 9 10 11 10 10 11
10 10 9 9 9 9 10 9 9 9 9 9 9 9 9 9 9 9 10 11 11 10 10 11 11 11 12 11 11 11 11 12 11 11 11 10 10 11 11 12 12 12 12
Wind_Direction
121 123 124 127 129 121 119 119 122 125 125 124 121 119 118 117 115 111 111 110 108 107 106 104 100 96 95 99 99 100 96 91 87 88 89 92 88 83 79 75 81 84 79
122 124 126 133 130 125 125 125 125 127 127 129 127 122 118 118 118 116 114 112 111 109 109 108 103 100 99 94 96 97 97 90 86 89 88 90 94 87 77 71 75 86 81
121 124 129 131 128 129 133 132 132 130 128 127 126 125 122 121 120 118 116 112 112 112 108 104 101 103 101 99 96 95 94 89 87 89 93 95 92 87 79 75 75 79 83
133 130 131 133 130 137 142 140 139 135 132 130 129 127 125 124 123 119 114 108 111 110 107 103 97 101 100 97 96 96 93 90 87 91 97 91 83 88 81 79 76 76 82
148 147 144 135 133 140 150 150 145 140 138 134 133 130 128 130 125 119 113 108 108 106 104 101 100 100 104 100 99 97 95 88 91 94 92 86 81 84 80 76 71 67 68
148 149 154 144 141 145 157 160 150 149 144 130 135 130 131 135 128 122 116 109 104 101 101 102 104 102 107 101 101 100 97 99 99 87 82 85 83 79 80 75 64 58 54
126 141 157 150 143 145 162 162 151 147 144 136 135 129 135 133 125 123 120 115 112 105 100 101 106 100 104 108 92 100 107 101 90 83 83 92 92 89 85 77 60 48 42
133 130 156 158 152 145 147 149 146 147 141 137 135 131 134 136 132 130 125 119 116 108 104 104 109 112 105 105 98 92 101 105 90 81 85 87 88 80 78 70 48 28 28
99 102 134 155 159 152 151 157 148 144 141 142 141 139 141 143 142 136 126 122 116 100 100 111 112 122 126 113 108 94 97 97 103 112 94 82 86 76 62 49 29 19 18
92 93 126 143 145 152 160 160 153 142 137 146 140 135 140 145 142 124 126 125 125 100 105 106 91 112 119 131 115 108 101 76 72 216 89 59 62 36 24 18 9 3 356
71 87 132 144 145 150 161 159 155 150 142 149 145 125 123 123 124 124 134 127 125 120 115 101 80 107 115 125 107 101 76 49 38 23 41 70 78 17 347 353 350 345 341
70 68 76 123 135 150 162 167 164 158 147 146 147 128 117 114 113 104 139 125 119 110 108 91 100 115 113 124 106 80 71 40 356 337 11 43 30 343 336 330 324 329 335
50 47 51 77 140 152 155 160 163 155 151 149 150 144 136 124 112 104 118 128 121 109 101 99 116 116 119 127 133 77 14 358 340 328 295 319 344 332 318 316 317 322 330
45 44 46 46 90 135 130 142 158 145 150 157 159 157 155 141 116 73 112 115 125 126 115 120 119 125 132 134 125 355 1 354 342 342 322 296 307 323 317 316 319 322 325
41 39 39 40 43 58 69 100 121 144 171 168 175 172 177 190 68 40 33 64 86 95 125 121 119 119 159 192 259 305 315 322 317 331 317 316 303 299 302 310 313 313 314
36 35 39 43 39 36 45 68 104 119 135 158 178 180 172 275 319 7 15 27 43 79 100 96 91 73 28 315 296 308 312 320 326 329 322 311 311 310 305 306 313 311 307
28 25 27 34 27 20 26 41 65 99 144 168 183 187 192 341 32 6 13 9 13 19 35 34 9 341 339 333 323 324 317 309 309 314 313 309 311 309 306 310 315 313 310
19 17 17 23 19 17 17 18 35 60 63 243 264 258 257 325 2 3 359 347 358 3 4 351 334 321 312 311 306 299 303 308 306 300 299 306 306 303 301 304 308 309 311
9 7 9 12 10 6 3 356 345 360 355 325 291 274 270 289 321 347 339 313 341 349 341 329 326 323 315 309 309 296 294 303 310 305 305 304 303 305 305 301 303 305 303
1 360 360 356 352 354 347 342 331 327 326 308 293 289 303 290 301 321 332 323 322 323 320 320 323 323 320 311 305 297 294 295 306 307 306 304 302 303 303 302 300 300 304
354 356 352 344 344 346 345 339 331 317 310 312 306 295 303 298 308 312 320 331 323 321 325 325 327 324 323 317 308 299 296 301 304 300 298 298 299 299 301 304 306 307 309
348 343 341 334 334 335 336 337 331 325 313 308 304 293 294 296 296 296 314 322 329 328 331 329 330 327 327 323 317 308 300 298 297 302 299 300 300 300 298 294 298 302 305
340 335 329 330 330 329 327 325 319 318 316 314 294 288 289 290 295 306 313 316 320 322 320 319 322 325 322 323 323 319 310 303 300 301 301 300 298 301 299 296 297 297 297
325 321 321 322 323 320 317 316 312 307 307 307 295 280 284 285 290 299 305 309 314 319 316 315 321 325 326 330 330 326 322 321 317 310 303 301 299 304 302 300 299 295 293
310 310 307 310 315 312 309 310 310 307 305 303 297 283 282 281 284 293 302 307 309 312 313 313 317 321 320 319 321 320 316 316 316 313 307 303 301 300 302 302 301 298 297
305 305 299 301 304 303 304 307 307 303 300 297 292 287 286 283 284 289 297 301 300 305 309 312 311 309 312 310 310 310 307 306 307 307 308 306 302 298 300 301 300 299 299
Height
5887 5888 5889 5890 5891 5892 5892 5893 5893 5893 5894 5895 5895 5895 5896 5896 5897 5898 5898 5899 5899 5899 5900 5900 5901 5901 5902 5902 5903 5903 5904 5904 5904 5904 5905 5905 5906 5906 5906 5906 5906 5907 5907
5889 5890 5891 5892 5892 5893 5894 5894 5895 5895 5896 5896 5896 5897 5897 5897 5898 5899 5899 5900 5900 5901 5901 5902 5902 5903 5903 5904 5904 5904 5905 5905 5905 5906 5906 5906 5907 5907 5907 5907 5907 5907 5908
5890 5891 5892 5893 5893 5894 5895 5895 5896 5897 5897 5897 5898 5898 5898 5899 5899 5900 5901 5901 5902 5902 5903 5903 5904 5904 5905 5905 5905 5905 5906 5906 5907 5907 5907 5908 5908 5908 5908 5908 5908 5908 5908
5892 5893 5893 5894 5895 5895 5896 5897 5897 5898 5898 5899 5899 5900 5900 5900 5901 5902 5902 5903 5903 5904 5904 5904 5905 5905 5906 5906 5906 5906 5907 5907 5907 5908 5909 5909 5909 5909 5909 5909 5909 5909 5909
5894 5894 5894 5895 5896 5896 5897 5898 5898 5899 5900 5900 5900 5901 5901 5901 5902 5903 5903 5904 5905 5905 5905 5906 5906 5907 5907 5907 5907 5907 5908 5908 5908 5908 5909 5910 5910 5910 5910 5910 5910 5910 5910
5895 5895 5895 5896 5897 5898 5898 5899 5899 5900 5901 5901 5901 5902 5902 5903 5903 5904 5905 5905 5906 5906 5907 5907 5907 5908 5908 5908 5908 5908 5909 5909 5909 5909 5910 5910 5910 5911 5911 5911 5911 5911 5911
5896 5896 5896 5897 5898 5899 5899 5900 5900 5901 5902 5902 5903 5903 5904 5904 5905 5905 5906 5906 5907 5907 5908 5908 5908 5908 5909 5909 5909 5909 5910 5910 5910 5911 5911 5911 5911 5911 5911 5912 5912 5912 5912
5896 5896 5897 5897 5898 5899 5900 5901 5901 5902 5903 5903 5904 5904 5905 5905 5906 5906 5907 5907 5908 5908 5909 5909 5909 5909 5909 5909 5910 5910 5910 5910 5911 5911 5911 5911 5911 5912 5912 5912 5912 5912 5912
5898 5898 5898 5898 5899 5900 5901 5901 5902 5903 5904 5904 5905 5905 5906 5906 5907 5907 5908 5908 5908 5909 5909 5909 5910 5910 5910 5910 5910 5910 5910 5911 5911 5911 5911 5911 5912 5912 5912 5912 5912 5912 5912
5899 5899 5899 5900 5900 5901 5901 5902 5903 5904 5904 5905 5906 5906 5907 5907 5908 5908 5908 5909 5909 5909 5909 5910 5910 5910 5910 5911 5911 5911 5911 5911 5911 5911 5911 5911 5912 5912 5912 5912 5912 5913 5913
5900 5900 5901 5901 5901 5901 5902 5903 5904 5904 5905 5906 5906 5907 5908 5908 5909 5909 5909 5909 5910 5910 5910 5910 5910 5910 5911 5911 5911 5912 5912 5912 5912 5912 5911 5911 5912 5912 5912 5912 5913 5913 5913
5901 5901 5901 5902 5902 5902 5903 5903 5904 5905 5905 5906 5907 5908 5908 5909 5910 5910 5910 5910 5910 5910 5910 5910 5911 5911 5911 5912 5912 5912 5912 5912 5912 5912 5912 5912 5912 5912 5912 5912 5912 5912 5912
5903 5903 5903 5903 5903 5902 5903 5904 5905 5905 5906 5907 5908 5908 5909 5910 5910 5910 5910 5911 5911 5911 5911 5911 5911 5912 5912 5912 5913 5913 5913 5913 5912 5912 5912 5912 5912 5912 5912 5912 5912 5912 5912
5904 5904 5904 5903 5903 5903 5904 5905 5905 5906 5907 5907 5908 5909 5910 5910 5911 5911 5911 5911 5912 5911 5911 5912 5912 5912 5912 5912 5913 5913 5913 5912 5912 5912 5912 5912 5912 5912 5912 5912 5912 5912 5912
5906 5905 5905 5905 5905 5904 5905 5906 5906 5907 5907 5907 5909 5910 5910 5911 5911 5911 5911 5912 5912 5912 5912 5912 5912 5912 5912 5912 5913 5913 5913 5912 5911 5912 5912 5912 5912 5912 5912 5912 5912 5911 5911
5907 5907 5907 5906 5906 5906 5906 5906 5907 5907 5908 5909 5910 5910 5911 5912 5912 5912 5912 5912 5912 5912 5912 5912 5912 5912 5912 5912 5912 5913 5913 5912 5911 5912 5911 5911 5911 5911 5911 5911 5911 5910 5910
5909 5908 5908 5908 5907 5907 5907 5907 5908 5908 5909 5910 5910 5911 5911 5912 5912 5912 5912 5912 5913 5913 5913 5912 5912 5912 5912 5912 5912 5912 5912 5912 5912 5912 5911 5911 5911 5910 5910 5910 5910 5909 5909
5910 5909 5909 5909 5909 5909 5908 5909 5909 5909 5910 5910 5911 5911 5912 5912 5913 5913 5913 5913 5913 5913 5913 5913 5912 5912 5912 5912 5912 5912 5912 5911 5911 5911 5911 5910 5910 5910 5910 5909 5909 5908 5908
5911 5910 5910 5910 5910 5910 5909 5909 5910 5910 5910 5911 5911 5911 5912 5912 5913 5913 5913 5913 5913 5913 5913 5912 5912 5912 5911 5911 5911 5911 5911 5911 5910 5910 5910 5910 5909 5909 5908 5908 5908 5907 5907
5912 5911 5911 5910 5910 5910 5910 5910 5910 5910 5911 5911 5911 5912 5912 5912 5913 5913 5913 5913 5913 5913 5912 5912 5912 5911 5911 5910 5910 5909 5909 5909 5909 5909 5909 5908 5908 5907 5907 5907 5906 5906 5905
5912 5912 5912 5911 5911 5911 5911 5910 5910 5911 5911 5911 5911 5912 5912 5912 5913 5913 5913 5913 5913 5912 5912 5911 5911 5910 5910 5909 5908 5908 5907 5907 5908 5907 5907 5907 5906 5906 5906 5905 5905 5904 5904
5912 5912 5912 5911 5911 5911 5911 5911 5911 5911 5911 5911 5911 5912 5912 5912 5913 5913 5913 5913 5912 5912 5911 5911 5910 5909 5909 5908 5907 5906 5906 5907 5906 5906 5905 5905 5904 5904 5903 5903 5903 5902 5902
5912 5912 5912 5912 5911 5911 5911 5911 5910 5911 5911 5911 5911 5911 5912 5912 5912 5913 5913 5913 5912 5911 5911 5910 5909 5908 5907 5907 5906 5906 5905 5905 5904 5904 5903 5902 5902 5902 5901 5901 5901 5900 5900
5912 5911 5911 5911 5911 5911 5911 5910 5910 5910 5910 5910 5911 5911 5911 5912 5912 5912 5912 5911 5911 5910 5909 5909 5908 5907 5906 5905 5905 5904 5904 5903 5903 5902 5901 5901 5900 5900 5899 5899 5898 5897 5896
5911 5911 5911 5910 5910 5910 5910 5910 5909 5910 5909 5909 5910 5910 5910 5911 5911 5911 5910 5910 5910 5909 5908 5907 5907 5906 5905 5904 5903 5903 5902 5901 5901 5900 5900 5899 5899 5898 5897 5896 5896 5895 5895
5910 5910 5909 5909 5909 5909 5909 5908 5908 5908 5908 5908 5908 5908 5908 5909 5909 5909 5909 5908 5907 5907 5906 5905 5905 5904 5903 5902 5901 5901 5900 5899 5898 5898 5897 5896 5896 5895 5894 5893 5893 5893 5892